Regional Weather Roundup
Issued by NWS Goodland, KS

Home | Current Version | Previous Version | Graphics & Text | Print | Product List | Glossary On
Versions: 1 2 3 4 5 6 7 8 9 10 11 12 13 14 15 16 17 18 19 20 21 22 23 24 25 26 27 28 29 30 31 32 33 34 35 36 37 38 39 40 41 42 43 44 45 46 47 48 49 50
000
ASUS43 KGLD 290459
RWRGLD

GOODLAND FORECAST AREA HOURLY WEATHER ROUNDUP
NATIONAL WEATHER SERVICE GOODLAND KS
1100 PM MDT FRI APR 28 2017

...OFFICIAL OBSERVATIONS...

CITY           SKY/WX    TMP DP  RH WIND       PRES   REMARKS
GOODLAND KS    LGT SNOW  34  33  96 N18G26    30.02S FOG
HILL CITY KS   CLOUDY    39  36  89 NE16      30.04S
IMPERIAL NEB   CLOUDY    36  32  85 NE12      30.09R
MCCOOK NEB     CLOUDY    38  34  85 N15       30.07S
AKRON CO       LGT SNOW  31  29  92 NE21      30.06F FOG     WCI  18
BURLINGTON CO  NOT AVBL
LIMON CO       LGT SNOW  30  30 100 NE21G28   30.00S FOG     WCI  17
$$

...UNOFFICIAL OBSERVATIONS...

CITY           SKY/WX    TMP DP  RH WIND       PRES   REMARKS
LENORA KS        N/A     37  32  82 MISG        N/A
NORTON KS      CLOUDY    37  34  87 N15       30.04F
SHARON SPRINGS   N/A     33  30  90 NE13        N/A
TRENTON NEB      N/A     36  32  85 N8          N/A
KIT CARSON CO    N/A     33  30  88 MISG        N/A
YUMA CO        CLOUDY    32  32 100 NE14G21   30.07R FOG
$$




USA.gov is the U.S. government's official web portal to all federal, state and local government web resources and services.